Regional Weather Roundup
Issued by NWS Grand Forks, ND

Home | Current Version | Previous Version | Text Only | Print | Product List | Glossary Off
Versions: 1 2 3 4 5 6 7 8 9 10 11 12 13 14 15 16 17 18 19 20 21 22 23 24 25 26 27 28 29 30 31 32 33 34 35 36 37 38 39 40 41 42 43 44 45 46 47 48 49 50

000
ASUS43 KFGF 241510
RWRFGF
PRAIRIE TO PINES  WEATHER ROUNDUP
NATIONAL WEATHER SERVICE EASTERN NORTH DAKOTA/GRAND FORKS ND
1000 AM CDT SAT SEP 24 2016

 **SATELLITE DATA USED TO AUGMENT SKY COVER AT AUTOMATED STATIONS**
 *****  WEATHER ACROSS EASTERN NORTH DAKOTA  *****

CITY           SKY/WX    TMP DP  RH WIND       PRES   REMARKS
GRAND FORKS    CLOUDY    67  63  87 SE15      29.86F
GRAND FRKS AFB CLOUDY    65  65  99 SE13      29.86F
DEVILS LAKE    CLOUDY    65  64  97 SE12      29.83R FOG
FARGO          CLOUDY    70  64  81 SE22G31   29.88S
WAHPETON ARPT  CLOUDY    70  63  78 SE22G30   29.91S
$$

 ***** WEATHER ACROSS CENTRAL AND WESTERN NORTH DAKOTA  *****

CITY           SKY/WX    TMP DP  RH WIND       PRES   REMARKS
BISMARCK       SUNNY     68  63  84 E9        29.74F
MINOT          CLOUDY    64  63  96 E9        29.75R FOG
JAMESTOWN      CLOUDY    69  65  86 SE15G25   29.81R
MINOT AFB      FOG       61  61 100 E8        29.74S VSB 1/4
GARRISON         N/A     63  63 100 E8        29.74R
WILLISTON      CLOUDY    57  54  89 N17       29.75F
DICKINSON      FOG       57  57 100 N10       29.71F VSB 1/4
HETTINGER      CLOUDY    61  60  97 SE8       29.70F
$$

 *****  OTHER AIRPORT OBSERVATIONS IN OUR AREA  *****

CITY           SKY/WX    TMP DP  RH WIND       PRES   REMARKS
WALHALLA       FAIR      59  59 100 SE10      29.87S FOG
GRAFTON AIRPOR CLOUDY    63  63 100 SE14      29.88S
VALLEY CITY AR CLOUDY    68  68 100 SE16G25   29.86S
CANDO          FOG       63  63 100 SE10      29.83F VSB 3/4
CAVALIER APRT  CLOUDY    61  61 100 SE7       29.87S FOG
GWINNER        FAIR      72  66  83 SE22G31   29.85S
ROLLA          FOG       59  59 100 SE9       29.83F VSB<1/4
 ***** THE ABOVE OBSERVATIONS ARE NON NWS ARE NOT QUALITY
       CONTROLLED AND MAY MIS-REPORT RAIN FOR SNOW...
$$

  *****  WEATHER ACROSS NORTHERN MINNESOTA  *****

CITY           SKY/WX    TMP DP  RH WIND       PRES   REMARKS
FLAG ISLAND    CLOUDY    57  55  94 SE6       30.00F FOG
WARROAD        CLOUDY    57  54  88 E9        29.98F FOG
ROSEAU         CLOUDY    59  54  82 E8        29.96S HAZE
HALLOCK        CLOUDY    64  63  94 SE12      29.89F
THF RVR FALLS  NOT AVBL
BAUDETTE       CLOUDY    57  56  96 SE13      30.01F FOG
WASKISH        CLOUDY    63  61  94 SE13G18   30.01F
CROOKSTON      CLOUDY    68  64  88 S17       29.89F
$$
  *****  WEATHER ACROSS CENTRAL AND WEST MINNESOTA  *****

CITY           SKY/WX    TMP DP  RH WIND       PRES   REMARKS
FOSSTON        MOSUNNY   66  61  82 SE16      29.94F
BEMIDJI        CLOUDY    60  60  98 SE14      30.01F FOG
PARK RAPIDS    CLOUDY    63  60  90 SE15G22   30.01F FOG
ELBOW LAKE     CLOUDY    67  65  92 E18G30    29.96F
WADENA         NOT AVBL
DETROIT LAKES  CLOUDY    64  63  94 SE15      29.97S FOG
MOORHEAD       CLOUDY    70  64  83 SE21      29.90S
FERGUS FALLS   CLOUDY    70  66  88 SE18G26   29.95S
MORRIS MN      MOSUNNY   70  66  88 SE17G24   29.95S FOG
STAPLES        CLOUDY    61  61 100 SE9       30.03S FOG
$$
  *****  WEATHER ELSEWHERE ACROSS MINNESOTA  *****

CITY           SKY/WX    TMP DP  RH WIND       PRES   REMARKS
DULUTH         CLOUDY    55  55 100 E10       30.15F FOG
INTRNTL FALLS  CLOUDY    58  55  90 SE8       30.08F
ELY            CLOUDY    57  52  82 SE10G18   30.16S
CLOQUET        CLOUDY    55  54  94 E7        30.14F FOG
WHEATON        NOT AVBL
BRAINERD       CLOUDY    61  60  97 SE8       30.07F FOG
HIBBING        CLOUDY    57  53  86 SE13      30.13S
ALEXANDRIA     CLOUDY    65  65 100 SE18G26   30.01S FOG
SAINT CLOUD    CLOUDY    63  63 100 SE9       30.06S FOG
MINNEAPOLIS    CLOUDY    64  61  90 SE14      30.09F FOG
$$

  *****  WEATHER ACROSS SOUTH DAKOTA  *****

CITY           SKY/WX    TMP DP  RH WIND       PRES   REMARKS
SIOUX FALLS    PTSUNNY   73  66  78 SE18G26   29.91F
BROOKINGS      SUNNY     71  66  84 SE18G28   29.90F
WATERTOWN      PTSUNNY   72  65  78 SE23G31   29.88F
HURON          PTSUNNY   72  64  76 S16G25    29.82F
SISSETON         N/A     70  66  87 S16G25    29.88S
ABERDEEN       MOSUNNY   75  65  70 SE21G33   29.81R
MITCHELL       CLOUDY    73  65  75 SE14G24   29.85R
PIERRE         CLOUDY    63  54  72 SW12      29.78S
MOBRIDGE       CLOUDY    71  62  73 S18       29.74R
RAPID CITY     SUNNY     56  46  69 S5        29.79R
$$

  *****  SOME WEATHER IN NEARBY STATES *****

CITY           SKY/WX    TMP DP  RH WIND       PRES   REMARKS
GLASGOW MT     LGT RAIN  49  48  97 S6        29.88R FOG
GREAT FALLS MT CLOUDY    49  39  68 W12       30.05R
CHEYENNE WY    SUNNY     47  37  68 SW9       30.00R
SCOTTSBLUFF NE SUNNY     51  42  71 SW3       29.95R
OMAHA NE       CLOUDY    77  67  71 SE14      29.96S
DES MOINES IA  MOSUNNY   76  67  73 SE10      30.06R
DAVENPORT IA   CLOUDY    68  66  93 SE9       30.15S FOG
CHICAGO IL     CLOUDY    67  61  81 E9        30.20R
EAU CLAIRE WI  CLOUDY    62  58  86 SE12      30.17S
LA CROSSE WI   CLOUDY    67  62  84 SE8       30.16F
$$

  *****  SOME NATIONAL WEATHER *****

CITY           SKY/WX    TMP DP  RH WIND       PRES   REMARKS
LA GUARDIA NY  PTSUNNY   63  52  67 NE10      30.13S
RALEIGH NC     SUNNY     82  69  64 CALM      30.08S
ATLANTA GA     PTSUNNY   83  66  56 W6        30.13R
NEW ORLEANS LA MOSUNNY   88  75  65 NE8       30.08S HX  97
OKLAHOMA CITY  MOSUNNY   78  71  79 S17       30.00S
ALBUQUERQUE NM MOSUNNY   50  42  74 CALM      30.19R
SALT LAKE CITY LGT RAIN  52  47  83 CALM      30.19R
LOS ANGELES CA MOSUNNY   68  42  38 E3        30.00S
BOISE ID       MOSUNNY   52  42  69 W8        30.25R
SEATTLE WA     MOCLDY    55  49  80 S6        30.35R
$$

*** WEATHER ACROSS MANITOBA...SASKATCHEWAN AND ONTARIO ***
                ***ONTARIO***

CITY           SKY/WX    TMP DP  RH WIND       PRES   REMARKS
GERALDTON      MOSUNNY   52  43  71 VRB2      30.32S
THUNDER BAY    PTSUNNY   59  52  77 E7        30.25S
SIOUX LOOKOUT  LGT RAIN  50  48  93 SE7       30.17S FOG
TORONTO        MOSUNNY   59  37  44 NE12      30.28S
BIG TROUT LK   SUNNY     54  39  58 SW6       30.24F
PICKLE LAKE    MOSUNNY   50  41  71 SE7       30.24F
DRYDEN         CLOUDY    52  50  93 SE13      30.12F
KENORA         LGT RAIN  54  54 100 SE12      30.05F FOG
$$
                *** MANITOBA***

CITY           SKY/WX    TMP DP  RH WIND       PRES   REMARKS
BRANDON        LGT RAIN  55  55 100 E12       29.83F FOG
DAUPHIN        CLOUDY    54  54 100 E9        29.84F
ISLAND LAKE    CLOUDY    52  43  71 SE7       30.09F
PILOT MOUND      N/A     59  59 100 SE13        N/A
THE PAS        DRIZZLE   52  50  93 SE7       29.89F FOG
THOMPSON       CLOUDY    50  41  71 E3        30.02F
WINNIPEG       DRIZZLE   59  57  94 SE15      29.93R FOG
LYNN LAKE      CLOUDY    48  45  87 SE8       29.97S
CHURCHILL      PTSUNNY   48  41  76 S5        30.14S
GILLAM         PTSUNNY   46  39  76 E5        30.15F
$$
                ***SASKATCHEWAN***

CITY           SKY/WX    TMP DP  RH WIND       PRES   REMARKS
ESTEVAN        FOG       55  55 100 N6        29.80R VSB 1/2
KINDERSLEY     MOSUNNY   45  45 100 CALM      29.94R FOG
LLOYDMINSTER   CLOUDY    48  48 100 NW10      29.93R FOG
PRINCE ALBERT  DRIZZLE   48  48 100 VRB2      29.87R FOG
REGINA         CLOUDY    52  52 100 NW9       29.82F FOG
YORKTON        CLOUDY    52  50  93 NE5       29.83F FOG
N. BATTLEFORD  CLOUDY    50 N/A N/A W3        29.92R
LA RONGE       DRIZZLE   48  46  93 SW3       29.89S FOG
SASKATOON      PTSUNNY   50  50 100 NW7       29.89R
SWIFT CURRENT  CLOUDY    45  45 100 W9        29.88S FOG
$$
NOTE: THESE ARE AUTOMATED STATIONS WITH LIMITED QUALITY CONTROL
      "FAIR" INDICATES FEW OR NO CLOUDS BELOW 12,000 FEET WITH NO
      SIGNIFICANT WEATHER AND/OR OBSTRUCTIONS TO VISIBILITY.
      SKY/WX - SKY CONDITION AND SIGNIFICANT WEATHER.
      TMP - AIR TEMPERATURE.    DP   - DEWPOINT TEMPERATURE.
      RH  - RELATIVE HUMIDITY.  PRES - PRESSURE.
      HX  - HEAT INDEX.         WCI  - WIND CHILL INDEX.
$




USA.gov is the U.S. government's official web portal to all federal, state and local government web resources and services.